[[{"header":{"parameterUnit":"m.s-1","parameterCategory":1,"la1":30.2991,"la2":30.254,"lo1":-89.0895,"lo2":-89.0444,"dy":0.0017,"dx":0.0017,"nx":28,"ny":28,"refTime":"2025-06-22T03:00:00:Z","depth":0,"parameterNumber":2,"parameterNumberName":"U-component_of_WINDS"},"data":[0,0,0,0,0,0,0,0,0,0,0,0,0,0,0,0,0,0,0,0,0,0,0,0,0,0,0,0,0,0,0,0,0,0,0,0,0,0,0,0,0,0,0,0,0,0,0,0,0,0,0,0,0,0,0,0,0,0,-2.056,-2.0559,0,-2.0449,-2.0448,-2.0446,-2.0354,-2.0353,-2.0352,-2.0351,-2.0235,-2.0233,-2.0231,0,0,0,0,0,0,0,0,0,0,0,0,0,-2.0692,-2.069,-2.056,-2.0559,-2.0557,-2.0449,-2.0448,-2.0446,-2.0354,-2.0353,-2.0351,-2.035,-2.0236,-2.0233,-2.0231,0,0,0,0,0,0,0,0,0,0,0,0,0,-2.0613,-2.0689,-2.056,-2.0498,-2.0491,-2.0449,-2.0448,-2.0446,-2.0354,-2.0353,-2.0351,-2.035,-2.0237,-2.0234,-2.023,-2.024,0,0,-2.0221,-2.0219,0,0,0,0,0,0,0,0,-2.0618,-2.0608,-2.0509,-2.0502,-2.0495,-2.0414,-2.0452,-2.0377,-2.0354,-2.0406,-2.0351,-2.0349,-2.0296,-2.0288,-2.027,-2.0235,-2.023,-2.022,-2.0218,-2.0217,-2.0216,0,0,0,0,0,0,0,-2.0623,-2.0612,-2.0516,-2.0507,-2.0499,-2.0476,-2.0463,-2.0437,-2.0361,-2.0402,-2.0395,-2.0383,-2.0292,-2.0273,-2.0267,-2.0228,-2.022,-2.0218,-2.0216,-2.0214,-2.0198,-2.0199,0,0,0,0,0,0,-2.0638,-2.0618,-2.0519,-2.0513,-2.0554,-2.0475,-2.046,-2.0441,-2.0361,-2.0347,-2.0384,-2.0379,-2.0279,-2.027,-2.0262,-2.0269,-2.0217,-2.0214,-2.0212,-2.0196,-2.0198,-2.02,0,0,0,0,0,0,-2.0641,-2.063,-2.0524,-2.0563,-2.0548,-2.0474,-2.0453,-2.044,-2.0421,-2.0348,-2.0333,-2.0379,-2.0278,-2.0267,-2.0247,-2.0264,-2.0213,-2.021,-2.0195,-2.0197,-2.0199,-2.0283,0,0,0,0,0,0,-2.0646,-2.0632,-2.0635,-2.0564,-2.0546,-2.0511,-2.0454,-2.0439,-2.0416,-2.0408,-2.0339,-2.0326,-2.0276,-2.0252,-2.0244,-2.0258,-2.0207,-2.0193,-2.0196,-2.0198,-2.0279,-2.0288,-2.0296,0,0,0,0,0,-2.0651,-2.0662,-2.0636,-2.0624,-2.0548,-2.0512,-2.0502,-2.0444,-2.0418,-2.042,-2.0373,-2.0329,-2.0264,-2.0251,-2.0241,-2.0255,-2.0191,-2.0195,-2.0198,-2.0275,-2.0286,-2.0296,0,0,0,0,0,0,-2.0736,-2.0652,-2.0621,-2.061,-2.0569,-2.0497,-2.0497,-2.0458,-2.0423,-2.0416,-2.0346,-2.0331,-2.0319,-2.0285,-2.0272,-2.0261,-2.0222,-2.0223,-2.0284,-2.0294,-2.0303,-2.0311,-2.0204,0,0,0,0,0,-2.0754,-2.0732,-2.0659,-2.0657,-2.0638,-2.0572,-2.0554,-2.0513,-2.0467,-2.0449,-2.04,-2.0358,-2.0327,-2.0309,-2.0277,-2.0274,-2.0258,-2.0279,-2.0287,-2.0295,-2.0297,-2.0294,-2.0302,-2.0211,-2.0211,-2.0211,0,0,-2.079,-2.0741,-2.0731,-2.0673,-2.0636,-2.0615,-2.0558,-2.0537,-2.0521,-2.0446,-2.0424,-2.0388,-2.0335,-2.0324,-2.0317,-2.0295,-2.0319,-2.0299,-2.0306,-2.0303,-2.0298,-2.0307,-2.0315,-2.0213,-2.0213,-2.0212,0,0,-2.0845,-2.0806,-2.08,-2.0765,-2.0711,-2.0667,-2.0666,-2.06,-2.0573,-2.0551,-2.0494,-2.0474,-2.0423,-2.0389,-2.0364,-2.041,-2.0367,-2.0401,-2.0447,-2.0444,-2.0452,-2.0458,-2.0474,-2.0481,-2.0403,-2.0404,-2.0404,0,-2.0896,-2.0862,-2.0801,-2.0785,-2.0761,-2.0694,-2.0688,-2.0657,-2.0595,-2.058,-2.0557,-2.0494,-2.0453,-2.0434,-2.0446,-2.0428,-2.0425,-2.0408,-2.0456,-2.0461,-2.0466,-2.0481,-2.0487,-2.0408,-2.0408,-2.0407,-2.0407,0,-2.0928,-2.0906,-2.0907,-2.0851,-2.0827,-2.0816,-2.0754,-2.0738,-2.07,-2.0659,-2.0638,-2.0588,-2.0546,-2.0539,-2.0501,-2.0514,-2.0503,-2.0469,-2.0428,-2.048,-2.0493,-2.0498,-2.0414,-2.0413,-2.0411,-2.041,0,0,-2.1031,-2.0943,-2.0945,-2.0919,-2.0855,-2.0837,-2.0823,-2.0783,-2.077,-2.0731,-2.0718,-2.0678,-2.0647,-2.062,-2.0578,-2.0576,-2.0616,-2.0542,-2.054,-2.0558,-2.0629,-2.0654,-2.0662,-2.0588,-2.0589,-2.059,-2.0633,0,-2.1075,-2.1047,-2.0994,-2.0983,-2.0962,-2.0899,-2.0887,-2.0848,-2.081,-2.0786,-2.0744,-2.0717,-2.0678,-2.0662,-2.0657,-2.0612,-2.0629,-2.0608,-2.0575,-2.0575,-2.059,-2.0668,-2.0695,-2.0738,-2.0638,-2.0638,-2.0639,0,-2.1122,-2.1088,-2.1075,-2.1015,-2.1004,-2.0995,-2.0954,-2.0933,-2.0887,-2.0859,-2.0831,-2.0785,-2.0768,-2.0732,-2.0708,-2.0695,-2.0679,-2.0655,-2.0655,-2.0649,-2.061,-2.0664,-2.075,-2.0757,-2.0646,-2.0646,-2.0645,0,-2.1199,-2.115,-2.1136,-2.1116,-2.1045,-2.104,-2.101,-2.0963,-2.0943,-2.0908,-2.0894,-2.0857,-2.0837,-2.081,-2.0756,-2.0734,-2.0738,-2.0697,-2.0715,-2.0716,-2.0717,-2.0718,-2.0802,-2.0708,-2.0708,-2.0708,-2.0708,0,-2.1254,-2.1249,-2.117,-2.1161,-2.1154,-2.1093,-2.1088,-2.1052,-2.1011,-2.0995,-2.0939,-2.0925,-2.0855,-2.0833,-2.0791,-2.0778,-2.0769,-2.0747,-2.0735,-2.0751,-2.0754,-2.0739,-2.0734,-2.071,-2.0709,-2.0709,-2.0709,0,-2.1338,-2.1285,-2.1266,-2.1201,-2.1185,-2.1183,-2.1127,-2.1117,-2.1077,-2.1057,-2.1049,-2.0986,-2.0958,-2.0902,-2.0857,-2.0829,-2.0826,-2.0806,-2.0841,-2.0834,-2.0856,-2.0855,-2.0932,-2.0939,-2.0842,-2.0843,-2.0844,0,-2.1376,-2.137,-2.1306,-2.1292,-2.1264,-2.1242,-2.1221,-2.1162,-2.1143,-2.1092,-2.1088,-2.1056,-2.1026,-2.0984,-2.0934,-2.09,-2.0879,-2.0909,-2.0874,-2.0891,-2.088,-2.0881,-2.088,-2.0917,-2.0918,-2.0919,-2.092,0,-2.1449,-2.1424,-2.1396,-2.1361,-2.1339,-2.1308,-2.1274,-2.1265,-2.1198,-2.118,-2.1151,-2.1128,-2.1084,-2.1053,-2.1013,-2.0982,-2.094,-2.0932,-2.0934,-2.095,-2.0971,-2.096,-2.0863,-2.093,-2.0929,-2.0928,-2.0928,-2.0927,-2.151,-2.1503,-2.1458,-2.143,-2.1399,-2.1369,-2.1357,-2.1316,-2.1291,-2.1251,-2.1217,-2.1192,-2.1147,-2.1089,-2.1061,-2.104,-2.102,-2.1023,-2.1024,-2.1026,-2.1033,-2.0976,-2.1033,-2.1032,-2.1032,-2.1032,-2.1031,0,-2.1581,-2.1549,-2.1524,-2.1479,-2.1458,-2.1422,-2.1383,-2.1368,-2.1346,-2.1309,-2.1282,-2.1249,-2.1219,-2.1168,-2.1134,-2.1127,-2.1107,-2.112,-2.112,-2.1114,-2.1052,-2.1054,-2.1137,-2.1137,-2.1137,-2.1137,-2.1137,-2.1137,-2.1615,-2.1602,-2.1571,-2.1543,-2.151,-2.1485,-2.1466,-2.1439,-2.1409,-2.1375,-2.135,-2.1318,-2.1275,-2.1238,-2.1209,-2.1195,-2.1185,-2.1204,-2.1184,-2.1128,-2.1118,-2.1108,-2.1109,-2.1202,-2.1202,-2.1246,-2.1247,-2.1247]},{"header":{"parameterUnit":"m.s-1","parameterCategory":1,"la1":30.2991,"la2":30.254,"lo1":-89.0895,"lo2":-89.0444,"dy":0.0017,"dx":0.0017,"nx":28,"ny":28,"refTime":"2025-06-22T03:00:00:Z","depth":0,"parameterNumber":3,"parameterNumberName":"V-component_of_WINDS"},"data":[0,0,0,0,0,0,0,0,0,0,0,0,0,0,0,0,0,0,0,0,0,0,0,0,0,0,0,0,0,0,0,0,0,0,0,0,0,0,0,0,0,0,0,0,0,0,0,0,0,0,0,0,0,0,0,0,0,0,2.4839,2.4838,0,2.4818,2.4818,2.4818,2.486,2.4861,2.4862,2.4864,2.4837,2.4835,2.4833,0,0,0,0,0,0,0,0,0,0,0,0,0,2.491,2.4908,2.4839,2.4838,2.4838,2.4818,2.4818,2.4818,2.4859,2.4861,2.4863,2.4864,2.4838,2.4835,2.4833,0,0,0,0,0,0,0,0,0,0,0,0,0,2.4883,2.4908,2.4839,2.4857,2.4858,2.4818,2.4818,2.4817,2.4859,2.4861,2.4863,2.4865,2.4838,2.4835,2.4832,2.4772,0,0,2.4823,2.4822,0,0,0,0,0,0,0,0,2.4884,2.488,2.4854,2.4855,2.4857,2.4844,2.4833,2.4802,2.4858,2.4858,2.4864,2.4866,2.4837,2.4834,2.4826,2.4771,2.477,2.4823,2.4821,2.482,2.4819,0,0,0,0,0,0,0,2.4886,2.4881,2.483,2.4854,2.4855,2.4864,2.4863,2.4827,2.4836,2.4859,2.4862,2.4859,2.4838,2.4828,2.4825,2.4769,2.4823,2.482,2.4819,2.4817,2.4665,2.4662,0,0,0,0,0,0,2.4886,2.4883,2.4831,2.483,2.4876,2.4861,2.486,2.4846,2.4837,2.4837,2.4857,2.4861,2.4833,2.4829,2.4825,2.4753,2.482,2.4817,2.4815,2.4667,2.4664,2.4662,0,0,0,0,0,0,2.4888,2.4881,2.4832,2.4857,2.4851,2.4858,2.4842,2.4844,2.4835,2.4836,2.4837,2.4846,2.4834,2.4829,2.4785,2.4753,2.4816,2.4813,2.4669,2.4666,2.4663,2.461,0,0,0,0,0,0,2.489,2.4882,2.486,2.4856,2.485,2.4794,2.484,2.4842,2.483,2.4835,2.4826,2.4826,2.4835,2.479,2.4782,2.475,2.4811,2.4672,2.4668,2.4664,2.4615,2.4606,2.4598,0,0,0,0,0,2.4892,2.4845,2.4858,2.4852,2.4823,2.4792,2.4788,2.4802,2.4827,2.4805,2.4806,2.4826,2.4758,2.4785,2.4777,2.4743,2.4674,2.4669,2.4664,2.4619,2.4608,2.4598,0,0,0,0,0,0,2.4842,2.4844,2.486,2.481,2.4801,2.4799,2.4771,2.4789,2.4771,2.4776,2.4792,2.4789,2.4742,2.4739,2.4768,2.4685,2.472,2.4713,2.4689,2.4678,2.4669,2.467,2.4808,0,0,0,0,0,2.4825,2.4802,2.4805,2.476,2.4755,2.4764,2.4751,2.4763,2.4753,2.4748,2.4746,2.4734,2.4711,2.4694,2.4672,2.4615,2.4613,2.4588,2.458,2.4573,2.4566,2.4535,2.4524,2.4645,2.4645,2.4645,0,0,2.479,2.4788,2.4772,2.475,2.4744,2.4718,2.476,2.473,2.4711,2.4743,2.4703,2.4701,2.4689,2.4638,2.4616,2.4634,2.4532,2.4566,2.456,2.4557,2.4529,2.4517,2.4507,2.4641,2.4642,2.4643,0,0,2.4712,2.4709,2.4672,2.4666,2.4658,2.4664,2.4655,2.4652,2.4652,2.4612,2.4636,2.4612,2.4571,2.4562,2.4551,2.4472,2.449,2.4464,2.4418,2.4388,2.4379,2.437,2.4341,2.4331,2.4458,2.4458,2.4458,0,2.4669,2.4632,2.465,2.4619,2.4609,2.464,2.4602,2.4594,2.4578,2.4569,2.459,2.454,2.4534,2.4482,2.4463,2.4454,2.4443,2.4465,2.4379,2.4371,2.4363,2.4336,2.4325,2.4455,2.4455,2.4455,2.4456,0,2.4578,2.4553,2.4523,2.451,2.4496,2.4461,2.4473,2.4457,2.447,2.4474,2.4432,2.4427,2.4405,2.4394,2.4405,2.4343,2.4354,2.4377,2.4413,2.4348,2.4322,2.4312,2.445,2.4451,2.4452,2.4453,0,0,2.4466,2.4465,2.4454,2.4448,2.4442,2.4421,2.4388,2.4369,2.4354,2.4342,2.4314,2.4279,2.4301,2.4289,2.43,2.4274,2.4211,2.43,2.43,2.4282,2.4141,2.4123,2.4111,2.4224,2.4222,2.422,2.4142,0,2.4389,2.4334,2.435,2.4294,2.427,2.43,2.4271,2.4263,2.4266,2.4245,2.4248,2.4223,2.4254,2.4247,2.4223,2.4224,2.4182,2.423,2.4196,2.4194,2.4197,2.4098,2.4078,2.4005,2.4132,2.413,2.4129,0,2.429,2.4277,2.4219,2.4218,2.4209,2.4182,2.4166,2.4146,2.4138,2.4142,2.413,2.4147,2.4113,2.4151,2.4104,2.4136,2.4123,2.4122,2.4119,2.4115,2.4157,2.409,2.3982,2.397,2.4114,2.4115,2.4116,0,2.4213,2.4181,2.4142,2.4137,2.4134,2.4115,2.4113,2.4108,2.4095,2.408,2.4072,2.4053,2.4042,2.4026,2.4037,2.4063,2.3988,2.4026,2.3989,2.3988,2.397,2.3971,2.3857,2.3964,2.3964,2.3964,2.3965,0,2.4124,2.4087,2.4108,2.4084,2.4043,2.4062,2.4021,2.4022,2.4017,2.3993,2.4018,2.3994,2.401,2.3988,2.3996,2.3955,2.395,2.3952,2.3954,2.3949,2.3948,2.3939,2.3944,2.3961,2.3962,2.3963,2.3963,0,2.403,2.4043,2.4003,2.4005,2.4005,2.3974,2.3976,2.3953,2.3959,2.3928,2.3922,2.393,2.3905,2.3915,2.3887,2.3893,2.3841,2.3851,2.3844,2.3846,2.3808,2.3811,2.3683,2.3667,2.3785,2.3784,2.3783,0,2.3972,2.3945,2.3945,2.3931,2.3928,2.3906,2.3894,2.3912,2.3898,2.3888,2.3866,2.3843,2.3826,2.3784,2.3787,2.3766,2.3775,2.3732,2.3772,2.3767,2.3773,2.3774,2.3771,2.3723,2.3722,2.372,2.372,0,2.3867,2.3875,2.3858,2.3842,2.3828,2.3816,2.3807,2.3794,2.3811,2.3794,2.377,2.3757,2.3731,2.3708,2.369,2.3686,2.3705,2.3708,2.3698,2.3691,2.3688,2.3688,2.3821,2.371,2.3711,2.3711,2.3712,2.3712,2.3788,2.3765,2.3762,2.3742,2.3738,2.3728,2.3707,2.3712,2.3693,2.3674,2.3685,2.3657,2.365,2.3628,2.3622,2.3599,2.3615,2.3601,2.3597,2.3593,2.3588,2.3693,2.3596,2.3596,2.3596,2.3596,2.3597,0,2.3684,2.3684,2.3665,2.3652,2.3636,2.3659,2.3649,2.3634,2.3609,2.3602,2.3586,2.3558,2.3536,2.3538,2.3518,2.3499,2.3507,2.3493,2.3493,2.3492,2.3574,2.3585,2.3487,2.3487,2.3487,2.3487,2.3487,2.3487,2.3627,2.359,2.3598,2.3558,2.3558,2.3532,2.3525,2.3516,2.3511,2.3479,2.3462,2.3465,2.3461,2.3441,2.3421,2.3423,2.3413,2.3395,2.3399,2.3476,2.3486,2.3497,2.3507,2.3394,2.3393,2.3319,2.3319,2.3318]}]]